• In Germany
  • List of Countries
  • For 7 days
  • Water Temperature
  • Satellite Maps
  • Weather Map
  • Weather Widgets
  • user-avatar
    Login

    Hourly Weather Rangpur

    Today, 17 August, Thursday

    Time Temperature Precipitation Wind Pressure Humidity
    00:00 +30°C° 0 mm 2 mps 748 mmHg 84%
    01:00 +30°C° 0.2 mm 2 mps 748 mmHg 85%
    02:00 +29°C° 0.2 mm 3 mps 748 mmHg 86%
    03:00 +29°C° 0.2 mm 3 mps 748 mmHg 86%
    04:00 +29°C° 0 mm 3 mps 748 mmHg 87%
    05:00 +29°C° 0 mm 3 mps 748 mmHg 88%
    06:00 +29°C° 0 mm 3 mps 748 mmHg 88%
    07:00 +29°C° 0 mm 3 mps 748 mmHg 84%
    08:00 +30°C° 0 mm 3 mps 748 mmHg 80%
    09:00 +31°C° 0 mm 3 mps 748 mmHg 76%
    10:00 +34°C° 0 mm 3 mps 748 mmHg 70%
    11:00 +35°C° 0 mm 3 mps 748 mmHg 64%
    12:00 +36°C° 0 mm 3 mps 747 mmHg 59%
    13:00 +37°C° 0 mm 3 mps 747 mmHg 58%
    14:00 +37°C° 0 mm 3 mps 746 mmHg 57%
    15:00 +37°C° 0 mm 3 mps 746 mmHg 56%
    16:00 +36°C° 0 mm 2 mps 746 mmHg 59%
    17:00 +36°C° 0 mm 2 mps 745 mmHg 62%
    18:00 +35°C° 0 mm 2 mps 745 mmHg 65%
    19:00 +35°C° 0 mm 2 mps 746 mmHg 67%
    20:00 +34°C° 0 mm 2 mps 746 mmHg 69%
    21:00 +32°C° 0 mm 2 mps 747 mmHg 72%
    22:00 +32°C° 1.9 mm 2 mps 747 mmHg 75%
    23:00 +31°C° 1.9 mm 3 mps 748 mmHg 79%

    Tomorrow, 18 August, Friday

    Time Temperature Precipitation Wind Pressure Humidity
    00:00 +31°C° 1.9 mm 3 mps 748 mmHg 82%
    01:00 +30°C° 0.6 mm 3 mps 748 mmHg 83%
    02:00 +30°C° 0.6 mm 3 mps 748 mmHg 84%
    03:00 +30°C° 0.6 mm 3 mps 747 mmHg 85%
    04:00 +30°C° 0.4 mm 3 mps 748 mmHg 86%
    05:00 +29°C° 0.4 mm 3 mps 748 mmHg 87%
    06:00 +29°C° 0.4 mm 3 mps 748 mmHg 88%
    07:00 +30°C° 0.1 mm 3 mps 748 mmHg 85%
    08:00 +30°C° 0.1 mm 4 mps 749 mmHg 82%
    09:00 +32°C° 0.1 mm 4 mps 750 mmHg 80%
    10:00 +33°C° 0.4 mm 4 mps 749 mmHg 76%
    11:00 +34°C° 0.4 mm 4 mps 749 mmHg 72%
    12:00 +35°C° 0.4 mm 3 mps 749 mmHg 68%
    13:00 +35°C° 0 mm 3 mps 749 mmHg 66%
    14:00 +35°C° 0 mm 3 mps 748 mmHg 64%
    15:00 +36°C° 0 mm 3 mps 748 mmHg 62%
    16:00 +35°C° 0.1 mm 3 mps 748 mmHg 65%
    17:00 +35°C° 0.1 mm 3 mps 748 mmHg 68%
    18:00 +34°C° 0.1 mm 3 mps 747 mmHg 71%
    19:00 +34°C° 0 mm 3 mps 748 mmHg 73%
    20:00 +32°C° 0 mm 2 mps 749 mmHg 75%
    21:00 +31°C° 0 mm 2 mps 750 mmHg 78%
    22:00 +31°C° 0.4 mm 2 mps 750 mmHg 79%
    23:00 +31°C° 0.4 mm 2 mps 750 mmHg 81%

    Day after tomorrow, 19 August, Saturday

    Time Temperature Precipitation Wind Pressure Humidity
    00:00 +30°C° 0.4 mm 2 mps 750 mmHg 82%
    01:00 +30°C° 1.7 mm 2 mps 749 mmHg 83%
    02:00 +30°C° 1.7 mm 2 mps 749 mmHg 84%
    03:00 +30°C° 1.7 mm 2 mps 749 mmHg 85%
    04:00 +30°C° 0.8 mm 2 mps 749 mmHg 85%
    05:00 +29°C° 0.8 mm 2 mps 750 mmHg 86%
    06:00 +29°C° 0.8 mm 2 mps 750 mmHg 87%
    07:00 +30°C° 0.4 mm 3 mps 750 mmHg 84%
    08:00 +30°C° 0.4 mm 3 mps 751 mmHg 80%
    09:00 +31°C° 0.4 mm 3 mps 751 mmHg 76%
    10:00 +33°C° 0 mm 3 mps 751 mmHg 71%
    11:00 +34°C° 0 mm 3 mps 750 mmHg 66%
    12:00 +35°C° 0 mm 3 mps 750 mmHg 61%
    13:00 +36°C° 0 mm 3 mps 749 mmHg 59%
    14:00 +36°C° 0 mm 3 mps 749 mmHg 58%
    15:00 +37°C° 0 mm 3 mps 748 mmHg 57%
    16:00 +36°C° 0 mm 3 mps 748 mmHg 61%
    17:00 +35°C° 0 mm 3 mps 748 mmHg 65%
    18:00 +34°C° 0 mm 3 mps 748 mmHg 68%
    19:00 +34°C° 0 mm 2 mps 748 mmHg 71%
    20:00 +32°C° 0 mm 2 mps 749 mmHg 73%
    21:00 +32°C° 0 mm 2 mps 750 mmHg 76%
    22:00 +31°C° 0.2 mm 2 mps 750 mmHg 77%
    23:00 +31°C° 0.2 mm 2 mps 750 mmHg 78%

    20 August, Sunday

    Time Temperature Precipitation Wind Pressure Humidity
    00:00 +31°C° 0.2 mm 1 mps 750 mmHg 79%
    01:00 +31°C° 0.2 mm 1 mps 750 mmHg 80%
    02:00 +30°C° 0.2 mm 1 mps 749 mmHg 81%
    03:00 +30°C° 0.2 mm 1 mps 749 mmHg 82%
    04:00 +30°C° 0.7 mm 1 mps 749 mmHg 84%
    05:00 +30°C° 0.7 mm 1 mps 749 mmHg 85%
    06:00 +29°C° 0.7 mm 1 mps 749 mmHg 86%
    07:00 +30°C° 0.7 mm 2 mps 750 mmHg 82%
    08:00 +31°C° 0.7 mm 2 mps 750 mmHg 77%
    09:00 +34°C° 0.7 mm 2 mps 750 mmHg 72%
    10:00 +35°C° 0.6 mm 2 mps 750 mmHg 66%
    11:00 +36°C° 0.6 mm 2 mps 750 mmHg 60%
    12:00 +37°C° 0.6 mm 2 mps 749 mmHg 55%
    13:00 +36°C° 0 mm 1 mps 749 mmHg 53%
    14:00 +37°C° 0 mm 1 mps 748 mmHg 52%
    15:00 +37°C° 0 mm 1 mps 747 mmHg 51%
    16:00 +37°C° 0 mm 1 mps 747 mmHg 54%
    17:00 +36°C° 0 mm 1 mps 747 mmHg 57%
    18:00 +35°C° 0 mm 1 mps 747 mmHg 60%
    19:00 +35°C° 0 mm 1 mps 748 mmHg 63%
    20:00 +35°C° 0 mm 2 mps 748 mmHg 65%
    21:00 +34°C° 0 mm 2 mps 749 mmHg 67%
    22:00 +34°C° 0.7 mm 2 mps 749 mmHg 71%
    23:00 +32°C° 0.7 mm 2 mps 749 mmHg 74%

    21 August, Monday

    Time Temperature Precipitation Wind Pressure Humidity
    00:00 +31°C° 0.7 mm 2 mps 749 mmHg 78%
    01:00 +31°C° 1.4 mm 2 mps 749 mmHg 79%
    02:00 +31°C° 1.4 mm 2 mps 748 mmHg 81%
    03:00 +31°C° 1.4 mm 2 mps 748 mmHg 83%
    04:00 +30°C° 1.4 mm 2 mps 748 mmHg 83%
    05:00 +30°C° 1.4 mm 2 mps 748 mmHg 84%
    06:00 +30°C° 1.4 mm 1 mps 749 mmHg 85%
    07:00 +31°C° 1.6 mm 2 mps 749 mmHg 81%
    08:00 +31°C° 1.6 mm 2 mps 749 mmHg 77%
    09:00 +32°C° 1.6 mm 2 mps 750 mmHg 74%
    10:00 +34°C° 0.6 mm 2 mps 749 mmHg 70%
    11:00 +35°C° 0.6 mm 2 mps 749 mmHg 66%
    12:00 +36°C° 0.6 mm 2 mps 749 mmHg 62%
    13:00 +36°C° 0.1 mm 2 mps 748 mmHg 61%
    14:00 +36°C° 0.1 mm 2 mps 747 mmHg 60%
    15:00 +36°C° 0.1 mm 2 mps 746 mmHg 60%
    16:00 +36°C° 0.3 mm 2 mps 746 mmHg 63%
    17:00 +35°C° 0.3 mm 2 mps 746 mmHg 66%
    18:00 +34°C° 0.3 mm 2 mps 746 mmHg 70%
    19:00 +34°C° 0 mm 2 mps 747 mmHg 72%
    20:00 +32°C° 0 mm 2 mps 747 mmHg 75%
    21:00 +31°C° 0 mm 2 mps 748 mmHg 78%
    22:00 +31°C° 0.2 mm 2 mps 748 mmHg 78%
    23:00 +31°C° 0.2 mm 2 mps 748 mmHg 79%

    22 August, Tuesday

    Time Temperature Precipitation Wind Pressure Humidity
    00:00 +31°C° 0.2 mm 2 mps 748 mmHg 79%
    01:00 +30°C° 1.8 mm 2 mps 748 mmHg 80%
    02:00 +30°C° 1.8 mm 2 mps 748 mmHg 82%
    03:00 +30°C° 1.8 mm 2 mps 747 mmHg 83%
    04:00 +30°C° 0.2 mm 2 mps 748 mmHg 84%
    05:00 +30°C° 0.2 mm 3 mps 748 mmHg 85%
    06:00 +29°C° 0.2 mm 3 mps 748 mmHg 86%
    07:00 +29°C° 0.6 mm 3 mps 749 mmHg 86%
    08:00 +30°C° 0.6 mm 3 mps 749 mmHg 85%
    09:00 +30°C° 0.6 mm 3 mps 750 mmHg 85%
    10:00 +30°C° 0.2 mm 3 mps 750 mmHg 82%
    11:00 +30°C° 0.2 mm 3 mps 749 mmHg 80%
    12:00 +31°C° 0.2 mm 3 mps 749 mmHg 78%
    13:00 +33°C° 0 mm 3 mps 749 mmHg 75%
    14:00 +33°C° 0 mm 3 mps 748 mmHg 72%
    15:00 +34°C° 0 mm 3 mps 748 mmHg 69%
    16:00 +34°C° 0 mm 3 mps 748 mmHg 71%
    17:00 +32°C° 0 mm 2 mps 748 mmHg 74%
    18:00 +32°C° 0 mm 2 mps 748 mmHg 76%
    19:00 +32°C° 0.3 mm 2 mps 749 mmHg 78%
    20:00 +31°C° 0.3 mm 2 mps 749 mmHg 80%
    21:00 +31°C° 0.3 mm 2 mps 750 mmHg 81%
    22:00 +31°C° 0.5 mm 2 mps 750 mmHg 82%
    23:00 +30°C° 0.5 mm 2 mps 750 mmHg 83%
    Show more